RH
47 47 47 47 47 46 46 46 46 44 43 42 41 38 38 39 39 38 37 37 36 34 34 33 35 36 36 37 33 25 20 19 18 17 17 15 15 15 13 13 13 12 13 14 15 14 13 12 11 11 11 10 10 10 10 10 10 10 10 12 13 12 12 13 12 12 10 11 11 12 11 10 20 25 19 15 12 12 15 18 23 28 33 36 38 40 44 45
48 48 48 48 48 48 47 47 47 47 45 43 42 41 37 37 39 40 36 35 36 35 33 33 34 36 36 36 33 25 21 21 20 18 16 15 15 15 14 13 13 13 13 13 16 15 15 13 11 11 10 10 10 10 10 10 10 9 11 12 12 11 12 13 13 12 11 12 13 12 12 11 16 22 20 16 13 15 18 20 26 30 34 36 39 40 43 45
49 49 49 49 49 50 50 49 48 48 48 45 44 42 38 35 38 39 34 31 34 34 33 33 33 35 35 35 32 25 23 23 23 23 19 16 15 15 14 13 13 14 13 14 15 15 15 14 12 11 10 9 9 10 10 10 10 9 12 14 12 11 12 13 12 12 11 12 14 13 13 12 13 17 18 17 15 17 18 19 25 30 32 33 37 39 41 44
50 51 50 51 50 50 50 51 49 49 49 48 46 44 41 38 39 38 33 30 34 35 34 34 34 34 33 35 31 25 26 25 23 24 21 17 18 16 14 14 13 13 13 14 15 16 15 15 14 11 10 9 9 9 9 10 10 9 11 13 13 11 11 12 11 11 11 13 14 14 14 13 13 13 13 16 17 16 17 21 24 27 31 33 37 39 41 44
50 51 51 51 51 50 50 51 51 50 50 49 48 47 43 41 41 38 33 32 34 35 35 36 36 34 32 33 29 27 28 22 21 25 21 20 22 20 16 14 13 13 13 13 15 17 16 15 14 12 11 9 9 9 9 9 10 11 10 10 11 11 11 12 10 11 12 13 15 14 14 14 14 14 13 15 19 22 22 24 25 27 31 35 37 39 41 43
50 51 51 50 50 50 50 50 50 52 51 50 49 49 46 43 41 38 33 32 30 30 33 34 36 34 33 33 30 31 29 20 23 26 23 23 23 21 18 15 14 14 13 14 16 17 16 15 13 12 11 10 10 8 8 9 9 10 10 9 10 11 12 12 11 12 12 12 14 15 15 15 15 16 15 14 24 32 29 27 27 27 31 35 37 39 41 40
50 50 50 50 49 49 48 48 49 51 52 52 50 49 49 46 43 41 37 34 31 30 32 31 34 36 35 34 32 32 29 23 24 25 24 24 23 22 21 17 15 15 14 15 16 16 16 15 13 12 11 11 10 9 9 9 9 9 10 9 9 10 12 12 11 12 12 12 14 15 16 16 16 18 19 18 26 33 30 29 28 28 31 34 36 39 42 39
48 48 48 48 48 47 46 46 46 48 50 53 53 51 50 48 45 43 39 37 34 33 34 32 32 36 36 36 33 29 27 24 22 22 24 24 24 24 22 21 19 18 17 16 15 15 16 15 13 12 12 12 11 10 9 9 9 8 8 10 9 9 11 11 11 11 12 12 12 15 16 17 18 22 24 24 28 30 30 31 28 29 33 34 36 40 42 41
44 44 46 47 46 46 45 44 44 45 47 51 55 55 53 51 48 46 42 40 38 35 35 35 34 35 36 36 34 27 22 22 20 19 23 24 25 25 23 24 24 23 20 17 15 15 16 15 14 13 13 13 13 11 10 9 10 8 8 9 9 9 10 11 11 11 11 11 12 16 16 18 24 27 27 27 30 30 32 33 30 31 36 36 39 42 42 44
38 39 41 42 44 44 44 44 44 45 46 48 55 59 58 55 52 49 46 41 39 36 35 35 36 35 36 37 34 26 20 20 19 17 20 23 25 25 24 23 26 27 23 18 16 14 15 15 14 13 13 14 13 12 10 9 11 11 8 8 9 9 10 11 12 11 12 11 13 16 17 20 27 31 34 32 31 32 34 35 32 32 36 38 41 43 44 48
35 35 36 36 38 41 43 44 44 46 47 48 55 61 62 60 56 52 49 44 40 38 35 34 35 37 38 37 33 27 21 20 19 18 19 21 23 25 24 23 24 27 24 19 16 15 15 15 15 14 14 14 14 13 12 9 10 11 9 9 9 8 10 11 11 11 12 12 13 16 17 21 27 33 41 40 36 36 38 38 34 34 37 39 43 46 48 51
34 35 35 35 36 38 40 42 43 45 47 49 54 60 64 65 61 56 52 48 44 39 36 33 32 37 39 36 34 28 21 19 19 19 19 20 22 22 24 23 22 24 24 20 17 16 16 15 15 14 14 15 14 15 14 10 10 10 9 10 10 9 10 9 10 11 11 12 13 15 18 21 27 35 43 43 41 42 43 42 38 37 38 39 43 48 52 53
31 33 34 35 36 37 39 40 42 43 46 51 55 59 63 67 66 62 58 54 49 43 41 38 33 38 39 35 35 29 22 20 18 18 18 19 21 21 23 23 23 23 24 21 18 17 16 16 15 15 16 16 16 16 15 11 10 10 9 10 11 11 10 9 10 11 12 13 12 16 20 22 28 37 42 44 44 45 47 45 39 37 38 39 44 50 54 53
32 31 31 33 34 36 38 39 40 41 45 49 56 63 66 68 69 69 66 60 54 49 47 44 39 40 39 36 35 27 20 20 18 17 16 17 19 20 21 22 23 24 23 22 20 18 17 16 16 17 16 16 17 17 16 14 11 11 10 10 11 11 11 11 11 11 11 12 12 16 20 24 32 38 43 46 43 42 41 41 38 37 40 44 50 55 56 54
34 32 31 32 32 32 33 35 37 39 42 46 54 63 66 68 70 72 72 67 61 54 49 47 45 42 38 36 34 26 21 20 18 17 16 16 18 20 21 21 24 25 23 23 21 20 18 17 16 16 16 16 18 16 16 16 13 12 12 12 10 11 13 12 11 11 11 11 13 15 20 28 35 38 43 45 42 40 36 37 38 39 44 51 55 56 55 55
36 34 32 31 32 31 30 31 33 36 39 42 49 59 63 68 71 72 73 72 68 61 55 49 46 44 39 37 35 28 24 24 21 20 18 16 16 19 21 22 24 26 24 23 22 21 19 18 17 17 18 17 16 16 16 16 15 12 12 12 10 10 14 13 11 11 11 12 13 16 20 27 33 35 41 43 43 42 37 38 43 47 54 59 61 60 58 59
36 35 34 33 32 32 31 30 30 32 35 38 44 53 61 67 71 72 73 73 71 68 62 52 46 45 42 40 37 31 27 25 24 23 21 18 15 17 20 21 24 26 25 23 22 22 20 20 18 18 19 18 16 16 16 16 16 13 12 13 13 11 12 13 12 11 12 13 14 17 19 26 31 32 37 41 41 42 39 47 57 59 62 65 68 68 65 67
35 34 33 33 32 32 32 31 30 30 30 33 39 45 53 62 68 71 73 74 73 71 64 56 50 46 44 43 40 35 31 26 24 24 23 20 16 16 19 22 24 27 26 23 22 21 21 21 20 19 19 18 17 16 16 16 15 15 13 13 15 12 10 13 14 11 12 13 14 17 19 25 30 28 35 39 39 46 53 64 74 69 61 63 68 67 66 71
35 35 33 33 32 32 31 32 31 31 29 29 31 37 44 54 62 68 73 74 72 68 61 56 52 43 40 44 40 36 33 28 25 24 24 21 17 16 18 21 24 28 27 24 21 20 20 24 23 20 19 18 18 16 16 17 17 16 13 13 14 12 10 12 14 12 12 12 14 17 18 23 28 28 33 38 44 57 61 65 76 77 68 67 69 68 70 74
36 37 36 34 33 33 33 32 32 32 31 29 32 38 41 46 55 62 68 71 68 63 59 57 53 42 38 41 42 38 34 30 27 24 24 22 19 18 18 20 24 28 29 25 22 20 21 25 24 20 19 18 18 16 15 17 19 17 14 12 12 12 11 12 13 13 12 13 15 17 18 22 27 29 30 36 49 58 58 59 69 79 79 74 69 70 76 77
37 38 38 37 35 34 34 35 34 33 32 31 36 41 39 41 51 59 64 66 64 61 59 58 53 45 40 40 43 43 36 32 30 26 26 23 20 19 18 19 23 27 29 27 24 22 23 24 23 21 20 19 17 16 16 18 18 17 15 13 12 13 13 13 12 13 12 13 16 16 18 21 25 31 34 41 52 52 53 59 62 68 74 73 68 68 75 77
38 39 40 40 38 37 35 35 35 34 33 35 39 42 41 45 53 60 63 62 61 60 59 59 54 47 43 43 44 46 40 35 31 27 26 25 21 18 17 20 22 25 28 28 27 27 25 23 22 22 21 19 17 17 18 18 17 17 15 13 13 13 14 15 12 13 13 12 17 17 18 24 28 39 45 44 50 51 50 56 55 56 61 63 65 67 71 72
38 39 41 41 40 39 35 34 34 34 34 37 43 44 45 51 55 59 62 59 56 56 55 57 55 49 46 45 44 47 44 36 32 29 27 26 23 19 19 20 22 24 26 27 29 28 25 22 22 23 21 20 19 18 18 18 17 17 16 14 14 14 15 16 13 14 13 13 18 17 17 28 36 45 50 44 47 50 50 53 52 50 52 55 60 64 63 61
40 41 42 42 43 41 38 37 34 34 36 40 46 46 44 50 56 59 62 59 53 50 51 53 53 50 47 44 44 47 45 38 34 32 30 27 24 20 20 20 22 24 24 27 28 27 23 21 22 22 22 21 19 17 17 17 16 17 17 16 17 16 14 16 15 15 14 14 16 16 19 32 40 44 47 44 47 48 47 50 49 45 47 53 57 59 55 52
44 45 45 45 46 44 43 41 39 40 43 45 48 47 47 51 57 62 64 62 54 47 49 51 50 51 49 46 45 44 45 41 36 33 31 29 25 22 21 21 22 23 24 26 27 26 25 24 23 23 23 23 19 17 16 16 17 18 18 18 19 18 15 17 17 15 16 16 14 15 22 31 37 42 43 41 43 46 45 45 45 41 42 47 51 53 52 49
48 48 50 49 48 50 51 50 51 51 49 50 51 50 48 50 60 69 68 66 57 48 52 53 51 53 49 46 45 43 43 41 37 35 33 31 28 23 23 23 21 23 24 25 25 26 28 28 25 23 25 24 21 18 16 16 18 19 19 18 19 18 16 17 17 15 17 18 17 16 20 27 35 41 42 38 35 40 41 38 39 41 41 42 46 50 51 49
52 52 53 51 56 61 59 58 58 55 53 52 55 55 51 55 72 77 70 67 57 47 52 56 54 54 50 46 44 42 44 42 38 37 34 33 31 27 26 25 23 23 24 26 27 26 29 29 26 23 24 24 22 21 18 16 17 21 19 17 18 18 17 17 17 17 18 20 22 18 16 24 34 41 42 38 35 38 38 33 34 38 39 40 43 47 49 48
54 56 57 59 65 66 63 62 59 60 60 55 60 66 63 71 84 81 73 70 59 49 53 56 56 57 54 48 42 41 46 43 37 37 35 34 34 29 27 26 24 24 25 26 27 27 28 29 26 24 23 23 23 22 20 17 18 23 21 18 19 18 19 18 16 18 20 22 23 19 16 18 26 39 46 40 38 42 41 34 34 37 36 38 42 45 48 50
57 60 65 70 70 65 65 67 64 66 65 61 72 79 78 86 89 84 82 72 59 57 58 56 57 59 58 51 43 41 45 43 40 38 36 36 36 32 29 28 26 27 27 26 26 29 28 26 26 25 23 22 23 24 23 19 18 23 22 19 20 20 19 19 18 20 23 23 21 19 19 15 18 38 53 48 42 41 39 36 33 34 33 34 40 45 48 51
58 64 72 74 70 69 72 71 67 68 65 69 83 84 87 97 91 87 87 73 66 70 64 60 62 61 59 55 46 43 44 45 44 40 36 37 36 33 30 30 28 28 29 26 28 31 28 26 26 26 25 23 23 25 25 22 20 21 20 18 20 21 20 21 20 22 24 23 19 18 21 18 16 32 46 44 41 38 35 34 31 31 32 31 35 44 48 50
60 67 71 71 71 74 75 72 70 71 70 78 91 90 93 97 91 86 79 70 78 81 68 65 67 61 60 58 49 45 47 48 44 38 37 39 38 34 32 32 30 30 30 28 30 32 28 27 27 26 26 25 23 25 26 24 22 20 19 19 23 24 24 25 24 25 25 21 17 17 24 22 17 26 37 35 34 34 32 32 29 28 30 28 31 41 47 50
63 67 67 68 72 74 73 73 74 76 78 86 95 98 96 94 90 83 71 71 87 90 77 70 69 65 63 61 52 47 50 50 44 39 39 42 40 36 32 30 30 31 30 28 33 34 29 26 26 27 29 27 24 25 26 26 25 22 19 20 25 27 28 29 28 26 23 21 20 20 24 25 17 22 36 39 33 29 28 28 27 27 28 27 30 39 48 52
65 65 64 68 72 75 76 77 80 82 85 92 99 99 95 89 81 71 70 83 95 97 89 77 70 69 67 64 56 49 50 50 46 43 42 43 42 37 31 28 28 29 28 28 35 39 35 30 27 27 29 28 25 23 24 24 25 24 22 22 25 27 31 33 29 26 24 24 26 22 23 24 19 22 33 36 30 28 26 23 25 27 26 26 31 41 50 54
68 65 62 68 73 78 80 80 86 88 88 95 100 96 89 84 78 72 77 92 97 98 95 85 76 72 69 65 57 51 51 50 46 45 45 44 41 37 32 28 28 28 28 30 34 38 37 33 29 27 28 28 25 23 23 23 25 25 24 25 25 25 30 31 28 26 25 27 28 24 23 22 22 31 36 32 28 29 27 24 25 28 30 32 36 45 53 53
68 64 63 71 75 80 82 81 85 90 92 97 96 89 84 82 85 87 89 93 96 96 95 89 84 78 72 67 59 52 51 50 47 46 45 43 40 36 32 30 29 27 28 32 34 35 35 32 26 25 27 27 26 25 24 25 26 26 26 27 26 25 27 29 30 29 26 30 32 25 23 26 31 41 40 32 30 27 24 26 27 29 36 42 43 48 53 53
66 65 66 74 77 80 81 81 83 87 92 95 92 88 85 85 91 95 95 96 97 97 96 93 90 83 74 68 62 55 50 49 47 46 46 43 40 36 33 31 30 28 28 32 33 32 35 34 27 25 26 26 27 27 26 26 27 28 27 27 26 24 25 29 33 32 29 33 34 23 24 33 39 43 38 30 29 26 24 29 28 28 38 44 44 47 51 53
66 64 65 71 77 79 78 80 82 84 88 92 91 89 85 88 94 96 97 98 98 99 98 95 92 87 75 66 63 56 51 50 48 46 46 43 40 37 32 31 30 29 29 33 35 31 32 37 32 26 25 26 27 29 27 27 28 30 29 28 27 26 28 30 31 32 30 32 32 25 28 32 35 42 41 31 29 27 26 28 27 28 37 41 41 43 47 52
67 65 65 66 73 78 78 80 80 80 87 90 87 85 84 87 92 95 98 98 98 99 97 94 95 89 74 63 60 56 52 52 48 46 46 43 42 38 32 31 31 28 28 32 36 32 30 38 35 27 26 27 28 30 29 26 27 29 29 28 30 30 31 31 31 32 31 31 32 30 29 30 33 42 41 32 30 29 26 26 26 28 33 38 40 42 46 52
71 70 69 63 68 74 73 75 73 74 83 84 80 80 81 84 87 91 97 98 97 97 95 94 95 89 75 61 58 57 55 54 49 46 45 43 44 39 32 32 30 28 29 29 32 31 29 37 36 28 27 27 28 30 30 28 26 27 28 27 27 30 30 29 29 30 30 29 30 31 33 32 35 40 38 32 30 29 26 26 26 27 30 35 39 41 45 51
73 74 70 63 67 68 64 68 72 71 72 74 76 78 77 81 84 88 94 96 96 94 93 93 93 90 79 66 61 58 57 58 52 47 46 42 44 40 32 31 29 28 29 28 29 31 29 35 35 30 30 30 27 27 29 29 26 24 26 25 26 28 29 28 27 27 29 29 28 33 39 37 34 36 37 32 30 29 29 28 27 27 31 35 39 41 45 50
69 74 73 66 64 62 62 69 68 64 65 70 76 75 75 79 84 88 92 93 93 92 91 94 94 91 82 72 67 61 58 60 54 50 48 42 40 40 33 30 30 28 29 28 30 30 30 33 34 31 31 30 27 25 27 30 27 24 25 25 26 29 29 30 29 27 28 29 29 30 33 38 40 38 34 31 30 30 30 29 29 29 32 36 40 42 46 51
62 65 67 62 57 58 66 71 63 59 67 74 78 78 78 81 84 86 88 89 89 89 91 96 95 89 81 75 71 64 60 60 54 49 47 41 39 39 35 31 29 28 28 28 31 30 28 32 34 32 30 28 28 27 28 32 31 27 26 26 26 27 27 27 29 32 31 32 36 33 29 39 48 43 37 34 31 29 30 31 31 33 35 38 40 43 47 53
57 57 60 57 55 61 71 72 67 70 74 72 73 78 80 82 83 83 84 86 86 86 90 96 95 91 86 78 72 67 64 62 56 49 45 44 42 39 36 32 29 28 27 30 35 30 27 30 33 33 29 27 32 30 28 32 34 30 26 23 24 24 24 26 27 32 33 33 39 39 34 42 48 44 40 39 34 31 32 32 33 36 39 40 41 44 48 54
61 62 65 64 64 70 74 72 72 76 75 71 74 81 81 80 80 80 83 85 84 86 92 94 92 90 87 78 70 69 68 63 58 54 49 48 46 40 36 33 30 28 27 32 35 28 27 31 32 32 31 31 35 33 28 29 29 29 26 23 23 24 26 28 29 31 32 31 35 35 32 42 48 43 39 38 35 33 32 32 35 38 40 40 42 46 49 53
67 66 69 70 70 71 70 69 72 74 74 77 82 85 83 82 82 82 84 85 85 88 92 91 89 85 81 75 68 66 67 61 58 58 51 49 47 40 36 35 31 29 28 31 32 27 29 33 31 31 32 34 34 29 26 26 26 29 29 24 25 26 27 30 32 32 30 29 31 30 31 45 50 42 39 38 36 35 35 36 39 40 40 41 43 46 49 54
77 68 64 65 66 67 65 64 68 72 75 81 84 85 86 86 85 84 85 87 88 89 90 88 88 84 76 71 64 62 64 61 59 59 53 50 48 39 34 34 31 29 29 30 30 29 30 32 31 32 31 29 29 27 24 26 27 29 30 27 26 25 27 29 30 29 26 27 30 27 31 45 48 42 41 41 37 37 38 39 41 43 43 44 45 46 51 59
87 79 72 69 68 69 69 67 68 72 77 82 83 84 85 85 86 86 87 87 88 90 91 87 87 87 80 72 67 62 60 59 59 59 54 53 50 39 35 35 31 29 29 28 29 28 29 31 30 33 32 26 26 28 26 24 24 26 29 29 28 26 26 27 26 23 24 27 29 28 31 41 44 41 40 39 37 38 39 40 42 44 46 47 49 49 53 60
91 88 86 85 82 79 80 78 76 77 79 82 81 81 84 86 87 87 85 84 86 89 92 89 87 87 81 75 70 62 57 60 64 64 60 58 52 40 37 36 31 29 29 29 29 27 29 31 29 33 37 32 28 30 26 23 22 23 25 27 28 26 25 25 24 23 26 30 30 33 37 37 39 39 36 35 37 37 40 44 45 46 49 50 52 53 54 57
93 92 91 92 90 89 88 86 84 82 81 83 82 81 83 86 88 87 86 87 86 86 89 92 90 84 79 76 73 65 61 66 72 71 67 64 56 43 39 38 33 31 30 29 29 28 30 32 30 31 35 34 33 31 26 24 25 25 25 25 26 26 24 24 25 24 29 32 32 37 41 37 37 36 32 32 36 37 41 45 47 48 49 49 52 56 57 59
91 91 89 89 86 82 82 82 80 79 79 80 81 80 81 85 87 86 87 89 86 84 87 91 89 82 79 79 76 70 66 66 71 72 67 68 67 53 43 40 35 32 33 32 31 30 32 33 30 31 35 34 34 33 29 29 28 27 27 26 26 26 25 26 26 25 29 31 31 36 40 39 39 36 30 31 34 37 41 43 46 48 48 48 51 55 59 61
89 87 86 87 83 74 72 74 74 75 76 77 78 79 80 84 87 86 85 85 83 83 86 88 86 81 79 81 80 77 70 64 65 65 61 66 71 61 51 47 39 32 35 37 33 31 34 36 33 34 37 37 35 33 33 34 34 31 30 27 26 26 27 27 26 25 28 30 31 35 36 39 42 36 29 30 33 37 40 43 45 47 47 49 50 52 59 64
88 85 83 84 81 73 72 73 73 74 77 77 79 79 79 83 88 87 86 85 83 83 84 86 86 82 81 84 85 81 75 67 62 60 57 60 62 58 54 51 42 35 38 39 35 32 35 38 38 36 35 37 39 36 36 39 40 37 33 28 27 26 27 28 27 26 28 29 32 35 33 35 40 37 33 33 34 36 39 42 45 45 46 48 49 52 60 66